Time,TemperatureF,DewpointF,PressureIn,WindDirection,WindDirectionDegrees,WindSpeedMPH,WindSpeedGustMPH,Humidity,HourlyPrecipIn,Conditions,Clouds,dailyrainin,SoftwareType,DateUTC
2013-02-16 00:00:00,53.5,39.0,30.23,NNW,334,0.0,0.0,58,0.00,,,0.00,weatherlink.com 1.10,2013-02-16 08:00:00,
2013-02-16 00:15:00,52.6,39.0,30.23,NNW,334,0.0,0.0,61,0.00,,,0.00,weatherlink.com 1.10,2013-02-16 08:15:00,
2013-02-16 00:30:00,52.3,42.0,30.22,NNW,334,0.0,0.0,67,0.00,,,0.00,weatherlink.com 1.10,2013-02-16 08:30:00,
2013-02-16 00:45:00,52.5,41.0,30.22,NNW,334,0.0,0.0,64,0.00,,,0.00,weatherlink.com 1.10,2013-02-16 08:45:00,
2013-02-16 01:00:00,52.3,40.0,30.22,NNW,334,0.0,0.0,63,0.00,,,0.00,weatherlink.com 1.10,2013-02-16 09:00:00,
2013-02-16 01:15:00,51.8,39.0,30.22,NNW,334,0.0,0.0,63,0.00,,,0.00,weatherlink.com 1.10,2013-02-16 09:15:00,
2013-02-16 01:30:00,51.1,40.0,30.22,NNW,334,0.0,0.0,66,0.00,,,0.00,weatherlink.com 1.10,2013-02-16 09:30:00,
2013-02-16 01:45:00,51.3,40.0,30.22,NNW,334,0.0,0.0,66,0.00,,,0.00,weatherlink.com 1.10,2013-02-16 09:45:00,
2013-02-16 02:00:00,51.4,39.0,30.22,NNW,334,0.0,0.0,63,0.00,,,0.00,weatherlink.com 1.10,2013-02-16 10:00:00,
2013-02-16 02:15:00,51.3,39.0,30.21,NNW,334,0.0,0.0,64,0.00,,,0.00,weatherlink.com 1.10,2013-02-16 10:15:00,
2013-02-16 02:30:00,50.9,39.0,30.21,NNW,334,0.0,0.0,65,0.00,,,0.00,weatherlink.com 1.10,2013-02-16 10:30:00,
2013-02-16 02:45:00,50.3,39.0,30.20,NNW,334,0.0,0.0,66,0.00,,,0.00,weatherlink.com 1.10,2013-02-16 10:45:00,
2013-02-16 03:00:00,50.1,40.0,30.20,NNW,334,0.0,0.0,68,0.00,,,0.00,weatherlink.com 1.10,2013-02-16 11:00:00,
2013-02-16 03:15:00,50.4,39.0,30.20,NNW,334,0.0,0.0,66,0.00,,,0.00,weatherlink.com 1.10,2013-02-16 11:15:00,
2013-02-16 03:30:00,50.5,40.0,30.19,NNW,334,0.0,0.0,67,0.00,,,0.00,weatherlink.com 1.10,2013-02-16 11:30:00,
2013-02-16 03:45:00,50.4,41.0,30.19,NNW,334,0.0,0.0,71,0.00,,,0.00,weatherlink.com 1.10,2013-02-16 11:45:00,
2013-02-16 04:01:00,49.6,42.0,30.19,NNW,334,0.0,0.0,75,0.00,,,0.00,weatherlink.com 1.10,2013-02-16 12:01:00,
2013-02-16 04:16:00,49.2,42.0,30.18,NNW,335,0.0,0.0,77,0.00,,,0.00,weatherlink.com 1.10,2013-02-16 12:16:00,
2013-02-16 04:31:00,48.7,41.0,30.18,NNW,334,0.0,0.0,76,0.00,,,0.00,weatherlink.com 1.10,2013-02-16 12:31:00,
2013-02-16 04:46:00,48.6,42.0,30.18,NNW,334,0.0,0.0,79,0.00,,,0.00,weatherlink.com 1.10,2013-02-16 12:46:00,
2013-02-16 05:01:00,48.2,42.0,30.18,NNW,334,0.0,0.0,80,0.00,,,0.00,weatherlink.com 1.10,2013-02-16 13:01:00,
2013-02-16 05:16:00,48.1,42.0,30.18,NNW,334,0.0,0.0,78,0.00,,,0.00,weatherlink.com 1.10,2013-02-16 13:16:00,
2013-02-16 05:31:00,48.5,42.0,30.18,NNW,334,0.0,0.0,78,0.00,,,0.00,weatherlink.com 1.10,2013-02-16 13:31:00,
2013-02-16 05:46:00,47.9,42.0,30.18,NNW,334,0.0,0.0,80,0.00,,,0.00,weatherlink.com 1.10,2013-02-16 13:46:00,
2013-02-16 06:01:00,47.6,40.0,30.18,NNW,334,0.0,0.0,76,0.00,,,0.00,weatherlink.com 1.10,2013-02-16 14:01:00,
2013-02-16 06:16:00,47.6,41.0,30.18,NNW,334,0.0,0.0,78,0.00,,,0.00,weatherlink.com 1.10,2013-02-16 14:16:00,
2013-02-16 06:31:00,48.0,41.0,30.18,NNW,334,0.0,0.0,78,0.00,,,0.00,weatherlink.com 1.10,2013-02-16 14:31:00,
2013-02-16 06:46:00,48.0,41.0,30.19,NNW,334,0.0,0.0,77,0.00,,,0.00,weatherlink.com 1.10,2013-02-16 14:46:00,
2013-02-16 07:01:00,47.8,41.0,30.19,NNW,334,0.0,0.0,76,0.00,,,0.00,weatherlink.com 1.10,2013-02-16 15:01:00,
2013-02-16 07:16:00,48.0,41.0,30.19,NNW,334,0.0,0.0,77,0.00,,,0.00,weatherlink.com 1.10,2013-02-16 15:16:00,
2013-02-16 07:31:00,47.7,41.0,30.19,NNW,334,0.0,0.0,77,0.00,,,0.00,weatherlink.com 1.10,2013-02-16 15:31:00,
2013-02-16 07:46:00,48.5,42.0,30.19,NNW,334,0.0,0.0,77,0.00,,,0.00,weatherlink.com 1.10,2013-02-16 15:46:00,
2013-02-16 08:01:00,49.8,43.0,30.19,NNW,334,0.0,0.0,76,0.00,,,0.00,weatherlink.com 1.10,2013-02-16 16:01:00,
2013-02-16 08:16:00,50.6,43.0,30.19,NNW,334,0.0,0.0,75,0.00,,,0.00,weatherlink.com 1.10,2013-02-16 16:16:00,
2013-02-16 08:31:00,51.8,43.0,30.20,NNW,334,0.0,1.0,73,0.00,,,0.00,weatherlink.com 1.10,2013-02-16 16:31:00,
2013-02-16 08:46:00,53.0,44.0,30.20,NNW,335,0.0,1.0,72,0.00,,,0.00,weatherlink.com 1.10,2013-02-16 16:46:00,
2013-02-16 09:01:00,55.1,44.0,30.19,NNW,345,1.0,3.0,66,0.00,,,0.00,weatherlink.com 1.10,2013-02-16 17:01:00,
2013-02-16 09:16:00,56.3,43.0,30.19,NW,325,0.0,3.0,62,0.00,,,0.00,weatherlink.com 1.10,2013-02-16 17:16:00,
2013-02-16 09:31:00,57.0,43.0,30.19,WNW,289,0.0,2.0,61,0.00,,,0.00,weatherlink.com 1.10,2013-02-16 17:31:00,
2013-02-16 09:46:00,57.9,43.0,30.19,SE,140,0.0,2.0,58,0.00,,,0.00,weatherlink.com 1.10,2013-02-16 17:46:00,
2013-02-16 10:01:00,59.6,45.0,30.19,SSE,159,0.0,4.0,59,0.00,,,0.00,weatherlink.com 1.10,2013-02-16 18:01:00,
2013-02-16 10:16:00,60.8,45.0,30.19,SSE,150,1.0,3.0,57,0.00,,,0.00,weatherlink.com 1.10,2013-02-16 18:16:00,
2013-02-16 10:31:00,61.0,46.0,30.19,SE,137,0.0,3.0,58,0.00,,,0.00,weatherlink.com 1.10,2013-02-16 18:31:00,
2013-02-16 10:46:00,61.5,45.0,30.19,SE,145,3.0,4.0,55,0.00,,,0.00,weatherlink.com 1.10,2013-02-16 18:46:00,
2013-02-16 11:01:00,62.7,46.0,30.18,SE,146,0.0,3.0,55,0.00,,,0.00,weatherlink.com 1.10,2013-02-16 19:01:00,
2013-02-16 11:16:00,63.1,45.0,30.18,SE,137,2.0,5.0,52,0.00,,,0.00,weatherlink.com 1.10,2013-02-16 19:16:00,
2013-02-16 11:31:00,64.3,46.0,30.17,SE,127,3.0,3.0,52,0.00,,,0.00,weatherlink.com 1.10,2013-02-16 19:31:00,
2013-02-16 11:46:00,65.5,47.0,30.17,SSE,150,0.0,1.0,52,0.00,,,0.00,weatherlink.com 1.10,2013-02-16 19:46:00,
2013-02-16 12:02:00,65.8,47.0,30.16,SE,128,1.0,2.0,51,0.00,,,0.00,weatherlink.com 1.10,2013-02-16 20:02:00,
2013-02-16 12:17:00,66.6,47.0,30.15,SSE,150,1.0,3.0,49,0.00,,,0.00,weatherlink.com 1.10,2013-02-16 20:17:00,
2013-02-16 12:32:00,65.8,46.0,30.15,NNW,340,0.0,3.0,49,0.00,,,0.00,weatherlink.com 1.10,2013-02-16 20:32:00,
2013-02-16 12:47:00,67.0,47.0,30.14,West,281,0.0,3.0,49,0.00,,,0.00,weatherlink.com 1.10,2013-02-16 20:47:00,
2013-02-16 13:02:00,67.5,45.0,30.13,NNW,329,1.0,2.0,45,0.00,,,0.00,weatherlink.com 1.10,2013-02-16 21:02:00,
2013-02-16 13:17:00,67.3,46.0,30.12,NW,325,1.0,3.0,46,0.00,,,0.00,weatherlink.com 1.10,2013-02-16 21:17:00,
2013-02-16 13:32:00,67.0,45.0,30.12,North,356,0.0,3.0,46,0.00,,,0.00,weatherlink.com 1.10,2013-02-16 21:32:00,
2013-02-16 13:47:00,67.5,44.0,30.11,NNW,333,0.0,2.0,43,0.00,,,0.00,weatherlink.com 1.10,2013-02-16 21:47:00,
2013-02-16 14:02:00,67.6,46.0,30.11,SE,134,0.0,1.0,46,0.00,,,0.00,weatherlink.com 1.10,2013-02-16 22:02:00,
2013-02-16 14:17:00,66.9,45.0,30.10,NNW,327,0.0,1.0,46,0.00,,,0.00,weatherlink.com 1.10,2013-02-16 22:17:00,
2013-02-16 14:32:00,66.6,46.0,30.09,NNW,346,0.0,1.0,48,0.00,,,0.00,weatherlink.com 1.10,2013-02-16 22:32:00,
2013-02-16 14:47:00,66.9,49.0,30.09,NNW,347,0.0,2.0,53,0.00,,,0.00,weatherlink.com 1.10,2013-02-16 22:47:00,
2013-02-16 15:02:00,67.8,48.0,30.09,NNW,345,1.0,3.0,49,0.00,,,0.00,weatherlink.com 1.10,2013-02-16 23:02:00,
2013-02-16 15:17:00,67.9,48.0,30.08,NNW,340,0.0,1.0,49,0.00,,,0.00,weatherlink.com 1.10,2013-02-16 23:17:00,
2013-02-16 15:32:00,67.2,49.0,30.08,North,354,0.0,2.0,52,0.00,,,0.00,weatherlink.com 1.10,2013-02-16 23:32:00,
2013-02-16 15:47:00,66.2,48.0,30.07,NW,325,1.0,3.0,52,0.00,,,0.00,weatherlink.com 1.10,2013-02-16 23:47:00,
2013-02-16 16:02:00,65.2,47.0,30.07,NNW,338,0.0,4.0,53,0.00,,,0.00,weatherlink.com 1.10,2013-02-17 00:02:00,
2013-02-16 16:17:00,65.1,47.0,30.07,NNW,341,1.0,4.0,52,0.00,,,0.00,weatherlink.com 1.10,2013-02-17 00:17:00,
2013-02-16 16:32:00,65.0,47.0,30.07,NNW,338,1.0,5.0,52,0.00,,,0.00,weatherlink.com 1.10,2013-02-17 00:32:00,
2013-02-16 16:47:00,64.4,47.0,30.06,NNW,346,0.0,1.0,53,0.00,,,0.00,weatherlink.com 1.10,2013-02-17 00:47:00,
2013-02-16 17:02:00,63.8,47.0,30.07,NNE,19,0.0,2.0,54,0.00,,,0.00,weatherlink.com 1.10,2013-02-17 01:02:00,
2013-02-16 17:17:00,63.4,47.0,30.07,North,349,0.0,1.0,55,0.00,,,0.00,weatherlink.com 1.10,2013-02-17 01:17:00,
2013-02-16 17:32:00,61.8,47.0,30.07,North,349,0.0,0.0,59,0.00,,,0.00,weatherlink.com 1.10,2013-02-17 01:32:00,
2013-02-16 17:47:00,59.8,47.0,30.07,North,349,0.0,0.0,63,0.00,,,0.00,weatherlink.com 1.10,2013-02-17 01:47:00,
2013-02-16 18:02:00,58.1,47.0,30.07,North,349,0.0,0.0,66,0.00,,,0.00,weatherlink.com 1.10,2013-02-17 02:02:00,
2013-02-16 18:17:00,56.7,47.0,30.07,North,349,0.0,0.0,70,0.00,,,0.00,weatherlink.com 1.10,2013-02-17 02:17:00,
2013-02-16 18:32:00,56.1,47.0,30.07,North,349,0.0,0.0,71,0.00,,,0.00,weatherlink.com 1.10,2013-02-17 02:32:00,
2013-02-16 18:47:00,55.1,47.0,30.07,North,349,0.0,0.0,73,0.00,,,0.00,weatherlink.com 1.10,2013-02-17 02:47:00,
2013-02-16 19:02:00,54.8,46.0,30.07,North,349,0.0,1.0,73,0.00,,,0.00,weatherlink.com 1.10,2013-02-17 03:02:00,
2013-02-16 19:17:00,55.3,46.0,30.07,SSE,156,0.0,1.0,71,0.00,,,0.00,weatherlink.com 1.10,2013-02-17 03:17:00,
2013-02-16 19:32:00,55.4,46.0,30.07,SSE,155,0.0,1.0,70,0.00,,,0.00,weatherlink.com 1.10,2013-02-17 03:32:00,
2013-02-16 19:47:00,54.7,45.0,30.07,SSE,155,0.0,0.0,71,0.00,,,0.00,weatherlink.com 1.10,2013-02-17 03:47:00,
2013-02-16 20:02:00,54.3,44.0,30.07,SE,143,0.0,2.0,69,0.00,,,0.00,weatherlink.com 1.10,2013-02-17 04:02:00,
2013-02-16 20:17:00,53.7,44.0,30.07,SE,143,0.0,0.0,69,0.00,,,0.00,weatherlink.com 1.10,2013-02-17 04:17:00,
2013-02-16 20:32:00,52.8,43.0,30.07,SE,143,0.0,0.0,69,0.00,,,0.00,weatherlink.com 1.10,2013-02-17 04:32:00,
2013-02-16 20:47:00,53.1,42.0,30.07,SE,143,0.0,0.0,65,0.00,,,0.00,weatherlink.com 1.10,2013-02-17 04:47:00,
2013-02-16 21:02:00,54.1,41.0,30.07,SE,143,0.0,1.0,62,0.00,,,0.00,weatherlink.com 1.10,2013-02-17 05:02:00,
2013-02-16 21:17:00,54.6,39.0,30.07,SE,146,0.0,0.0,56,0.00,,,0.00,weatherlink.com 1.10,2013-02-17 05:17:00,
2013-02-16 21:32:00,54.1,39.0,30.07,SSE,162,0.0,0.0,57,0.00,,,0.00,weatherlink.com 1.10,2013-02-17 05:32:00,
2013-02-16 21:47:00,52.5,38.0,30.07,SSE,162,0.0,0.0,59,0.00,,,0.00,weatherlink.com 1.10,2013-02-17 05:47:00,
2013-02-16 22:02:00,51.3,39.0,30.08,SSE,162,0.0,0.0,62,0.00,,,0.00,weatherlink.com 1.10,2013-02-17 06:02:00,
2013-02-16 22:17:00,50.5,40.0,30.07,SSE,162,0.0,0.0,67,0.00,,,0.00,weatherlink.com 1.10,2013-02-17 06:17:00,
2013-02-16 22:32:00,49.7,39.0,30.07,SSE,162,0.0,0.0,68,0.00,,,0.00,weatherlink.com 1.10,2013-02-17 06:32:00,
2013-02-16 22:47:00,49.1,40.0,30.07,SSE,162,0.0,0.0,70,0.00,,,0.00,weatherlink.com 1.10,2013-02-17 06:47:00,
2013-02-16 23:02:00,48.1,39.0,30.07,SSE,162,0.0,0.0,71,0.00,,,0.00,weatherlink.com 1.10,2013-02-17 07:02:00,
2013-02-16 23:17:00,47.6,39.0,30.06,SSE,162,0.0,0.0,72,0.00,,,0.00,weatherlink.com 1.10,2013-02-17 07:17:00,
2013-02-16 23:32:00,47.3,39.0,30.06,SSE,162,0.0,0.0,73,0.00,,,0.00,weatherlink.com 1.10,2013-02-17 07:32:00,
2013-02-16 23:47:00,47.1,39.0,30.06,SSE,162,0.0,0.0,73,0.00,,,0.00,weatherlink.com 1.10,2013-02-17 07:47:00,